• In Österreich
  • Länderverzeichnis
  • Für 7 Tage
  • Wassertemperatur
  • Satellitenkarten
  • Wetterkarte
  • News
  • Widgets
  • user-avatar
    Anmelden

    Stündliche Wetter Ischgl

    Heute, 25 Mai, Freitag

    Zeit Temperatur Niederschläge Wind Luftdruck Luftfeuchtigkeit
    00:00 +3°C° 0,1 mm 1 m/S 575 mmHg 93%
    01:00 +3°C° 0 mm 1 m/S 575 mmHg 91%
    02:00 +3°C° 0 mm 1 m/S 575 mmHg 91%
    03:00 +2°C° 0 mm 1 m/S 575 mmHg 90%
    04:00 +2°C° 0 mm 1 m/S 575 mmHg 89%
    05:00 +3°C° 0 mm 1 m/S 575 mmHg 86%
    06:00 +5°C° 0 mm 1 m/S 576 mmHg 82%
    07:00 +7°C° 0 mm 1 m/S 577 mmHg 76%
    08:00 +8°C° 0 mm 1 m/S 578 mmHg 68%
    09:00 +10°C° 0 mm 1 m/S 578 mmHg 60%
    10:00 +11°C° 0 mm 1 m/S 579 mmHg 52%
    11:00 +12°C° 0 mm 1 m/S 579 mmHg 50%
    12:00 +13°C° 0 mm 1 m/S 580 mmHg 48%
    13:00 +14°C° 0 mm 1 m/S 580 mmHg 46%
    14:00 +14°C° 0 mm 2 m/S 580 mmHg 46%
    15:00 +14°C° 0 mm 2 m/S 580 mmHg 47%
    16:00 +14°C° 0 mm 2 m/S 579 mmHg 48%
    17:00 +12°C° 0,1 mm 2 m/S 579 mmHg 57%
    18:00 +10°C° 0,1 mm 2 m/S 578 mmHg 66%
    19:00 +9°C° 0,1 mm 2 m/S 578 mmHg 75%
    20:00 +8°C° 0 mm 1 m/S 578 mmHg 80%
    21:00 +7°C° 0 mm 1 m/S 577 mmHg 85%
    22:00 +5°C° 0 mm 1 m/S 577 mmHg 90%
    23:00 +5°C° 0 mm 1 m/S 577 mmHg 89%

    Morgen, 26 Mai, Samstag

    Zeit Temperatur Niederschläge Wind Luftdruck Luftfeuchtigkeit
    00:00 +4°C° 0 mm 1 m/S 577 mmHg 88%
    01:00 +4°C° 0 mm 1 m/S 577 mmHg 88%
    02:00 +4°C° 0 mm 1 m/S 576 mmHg 87%
    03:00 +4°C° 0 mm 1 m/S 576 mmHg 86%
    04:00 +4°C° 0 mm 1 m/S 576 mmHg 85%
    05:00 +5°C° 0 mm 1 m/S 577 mmHg 79%
    06:00 +7°C° 0 mm 1 m/S 578 mmHg 74%
    07:00 +9°C° 0 mm 1 m/S 580 mmHg 68%
    08:00 +11°C° 0,1 mm 1 m/S 580 mmHg 61%
    09:00 +13°C° 0,1 mm 1 m/S 581 mmHg 53%
    10:00 +15°C° 0,1 mm 1 m/S 582 mmHg 46%
    11:00 +15°C° 0,3 mm 1 m/S 582 mmHg 45%
    12:00 +16°C° 0,3 mm 1 m/S 582 mmHg 43%
    13:00 +16°C° 0,3 mm 1 m/S 583 mmHg 42%
    14:00 +16°C° 0,6 mm 1 m/S 582 mmHg 44%
    15:00 +15°C° 0,6 mm 1 m/S 582 mmHg 47%
    16:00 +15°C° 0,6 mm 2 m/S 582 mmHg 50%
    17:00 +13°C° 0,7 mm 1 m/S 581 mmHg 59%
    18:00 +12°C° 0,7 mm 1 m/S 580 mmHg 69%
    19:00 +10°C° 0,7 mm 0 m/S 580 mmHg 79%
    20:00 +9°C° 0,4 mm 0 m/S 580 mmHg 80%
    21:00 +9°C° 0,4 mm 1 m/S 579 mmHg 80%
    22:00 +8°C° 0,4 mm 1 m/S 579 mmHg 81%
    23:00 +8°C° 0,1 mm 1 m/S 579 mmHg 80%

    übermorgen, 27 Mai, Sonntag

    Zeit Temperatur Niederschläge Wind Luftdruck Luftfeuchtigkeit
    00:00 +7°C° 0,1 mm 1 m/S 579 mmHg 79%
    01:00 +7°C° 0,1 mm 1 m/S 579 mmHg 78%
    02:00 +7°C° 0 mm 1 m/S 578 mmHg 77%
    03:00 +7°C° 0 mm 1 m/S 578 mmHg 77%
    04:00 +6°C° 0 mm 1 m/S 578 mmHg 77%
    05:00 +8°C° 0 mm 1 m/S 578 mmHg 74%
    06:00 +9°C° 0 mm 1 m/S 579 mmHg 71%
    07:00 +10°C° 0 mm 1 m/S 580 mmHg 68%
    08:00 +12°C° 0,1 mm 1 m/S 580 mmHg 60%
    09:00 +13°C° 0,1 mm 1 m/S 581 mmHg 53%
    10:00 +15°C° 0,1 mm 1 m/S 582 mmHg 46%
    11:00 +16°C° 0,2 mm 1 m/S 582 mmHg 44%
    12:00 +16°C° 0,2 mm 1 m/S 582 mmHg 42%
    13:00 +18°C° 0,2 mm 1 m/S 582 mmHg 40%
    14:00 +16°C° 0,8 mm 1 m/S 581 mmHg 46%
    15:00 +15°C° 0,8 mm 1 m/S 581 mmHg 53%
    16:00 +14°C° 0,8 mm 1 m/S 580 mmHg 59%
    17:00 +13°C° 1,4 mm 1 m/S 580 mmHg 67%
    18:00 +11°C° 1,4 mm 1 m/S 579 mmHg 75%
    19:00 +10°C° 1,4 mm 1 m/S 579 mmHg 83%
    20:00 +9°C° 0,6 mm 1 m/S 578 mmHg 84%
    21:00 +8°C° 0,6 mm 1 m/S 578 mmHg 85%
    22:00 +8°C° 0,6 mm 1 m/S 578 mmHg 86%
    23:00 +7°C° 0,1 mm 1 m/S 578 mmHg 84%

    28 Mai, Montag

    Zeit Temperatur Niederschläge Wind Luftdruck Luftfeuchtigkeit
    00:00 +6°C° 0,1 mm 2 m/S 578 mmHg 83%
    01:00 +6°C° 0,1 mm 2 m/S 578 mmHg 82%
    02:00 +6°C° 0 mm 2 m/S 577 mmHg 81%
    03:00 +5°C° 0 mm 2 m/S 577 mmHg 80%
    04:00 +5°C° 0 mm 2 m/S 577 mmHg 79%
    05:00 +6°C° 0 mm 2 m/S 578 mmHg 75%
    06:00 +9°C° 0 mm 1 m/S 578 mmHg 71%
    07:00 +10°C° 0 mm 1 m/S 579 mmHg 67%
    08:00 +12°C° 0,1 mm 1 m/S 580 mmHg 59%
    09:00 +14°C° 0,1 mm 1 m/S 581 mmHg 52%
    10:00 +16°C° 0,1 mm 1 m/S 582 mmHg 44%
    11:00 +16°C° 0,2 mm 1 m/S 582 mmHg 43%
    12:00 +17°C° 0,2 mm 2 m/S 582 mmHg 43%
    13:00 +17°C° 0,2 mm 2 m/S 582 mmHg 42%
    14:00 +17°C° 0,4 mm 2 m/S 581 mmHg 45%
    15:00 +16°C° 0,4 mm 2 m/S 581 mmHg 49%
    16:00 +16°C° 0,4 mm 2 m/S 580 mmHg 52%
    17:00 +15°C° 0,5 mm 2 m/S 580 mmHg 60%
    18:00 +13°C° 0,5 mm 2 m/S 579 mmHg 68%
    19:00 +12°C° 0,5 mm 2 m/S 579 mmHg 76%
    20:00 +10°C° 0,1 mm 2 m/S 578 mmHg 80%
    21:00 +8°C° 0,1 mm 2 m/S 578 mmHg 83%
    22:00 +7°C° 0,1 mm 2 m/S 577 mmHg 87%
    23:00 +7°C° 0 mm 2 m/S 577 mmHg 87%

    29 Mai, Dienstag

    Zeit Temperatur Niederschläge Wind Luftdruck Luftfeuchtigkeit
    00:00 +7°C° 0 mm 2 m/S 577 mmHg 87%
    01:00 +6°C° 0 mm 2 m/S 577 mmHg 86%
    02:00 +6°C° 0 mm 2 m/S 577 mmHg 86%
    03:00 +6°C° 0 mm 2 m/S 576 mmHg 85%
    04:00 +5°C° 0 mm 2 m/S 576 mmHg 84%
    05:00 +7°C° 0 mm 2 m/S 577 mmHg 79%
    06:00 +8°C° 0 mm 2 m/S 577 mmHg 73%
    07:00 +10°C° 0 mm 1 m/S 578 mmHg 68%
    08:00 +12°C° 0 mm 2 m/S 579 mmHg 62%
    09:00 +14°C° 0 mm 2 m/S 579 mmHg 56%
    10:00 +16°C° 0 mm 2 m/S 580 mmHg 49%
    11:00 +16°C° 0,2 mm 2 m/S 580 mmHg 50%
    12:00 +16°C° 0,2 mm 2 m/S 580 mmHg 50%
    13:00 +16°C° 0,2 mm 3 m/S 580 mmHg 51%
    14:00 +16°C° 0,5 mm 3 m/S 579 mmHg 52%
    15:00 +16°C° 0,5 mm 3 m/S 579 mmHg 53%
    16:00 +16°C° 0,5 mm 2 m/S 579 mmHg 53%
    17:00 +15°C° 0,9 mm 2 m/S 578 mmHg 62%
    18:00 +13°C° 0,9 mm 2 m/S 578 mmHg 71%
    19:00 +12°C° 0,9 mm 1 m/S 577 mmHg 80%
    20:00 +10°C° 0,7 mm 2 m/S 577 mmHg 83%
    21:00 +9°C° 0,7 mm 2 m/S 576 mmHg 87%
    22:00 +7°C° 0,7 mm 2 m/S 576 mmHg 90%
    23:00 +7°C° 0 mm 2 m/S 576 mmHg 90%

    30 Mai, Mittwoch

    Zeit Temperatur Niederschläge Wind Luftdruck Luftfeuchtigkeit
    00:00 +6°C° 0 mm 2 m/S 575 mmHg 89%
    01:00 +6°C° 0 mm 2 m/S 575 mmHg 89%
    02:00 +6°C° 0 mm 2 m/S 575 mmHg 88%
    03:00 +5°C° 0 mm 2 m/S 574 mmHg 86%
    04:00 +5°C° 0 mm 2 m/S 574 mmHg 85%
    05:00 +6°C° 0 mm 2 m/S 575 mmHg 80%
    06:00 +8°C° 0 mm 2 m/S 576 mmHg 75%
    07:00 +9°C° 0 mm 2 m/S 576 mmHg 71%
    08:00 +12°C° 0 mm 2 m/S 577 mmHg 64%
    09:00 +14°C° 0 mm 2 m/S 578 mmHg 57%
    10:00 +16°C° 0 mm 2 m/S 578 mmHg 49%
    11:00 +16°C° 0,3 mm 2 m/S 579 mmHg 49%
    12:00 +17°C° 0,3 mm 2 m/S 579 mmHg 48%
    13:00 +18°C° 0,3 mm 2 m/S 579 mmHg 47%
    14:00 +17°C° 0,8 mm 2 m/S 578 mmHg 50%
    15:00 +17°C° 0,8 mm 2 m/S 578 mmHg 53%
    16:00 +16°C° 0,8 mm 2 m/S 577 mmHg 56%
    17:00 +15°C° 1,4 mm 2 m/S 577 mmHg 65%
    18:00 +13°C° 1,4 mm 2 m/S 576 mmHg 73%
    19:00 +12°C° 1,4 mm 1 m/S 576 mmHg 82%
    20:00 +10°C° 0,5 mm 2 m/S 575 mmHg 85%
    21:00 +9°C° 0,5 mm 2 m/S 575 mmHg 87%
    22:00 +7°C° 0,5 mm 2 m/S 575 mmHg 90%
    23:00 +7°C° 0,2 mm 2 m/S 575 mmHg 91%
    Mehr zeigen